{"data":{"norad_id":59413,"epoch":"2026-09-21T15:14:11.932512Z","epoch_age_seconds":66763,"freshness":"FRESH","line1":"1 59413U 24064R   26264.63486033  .00042310  00000+0  12259-2 0  9991","line2":"2 59413  42.9984  19.9762 0009075 332.1716  27.8652 15.34835145139303","mean_motion":15.34835145,"eccentricity":0.0009075,"inclination_deg":42.9984,"raan_deg":19.9762,"arg_perigee_deg":332.1716,"mean_anomaly_deg":27.8652,"bstar":0.0012259,"rev_number":13930,"period_min":93.821151065706,"perigee_km":455.20331405294,"apogee_km":467.61709222664,"semimajor_km":6839.5472031398,"source":"CELESTRAK","updated_at":"2026-09-22T09:00:48.916801Z"}}